Location: Hartford
(41.7640°N, 72.6860°W)
Time: 22:12:01
(UTC-04:00)

ISS - All Passes

Search period start: 21 September 2014 00:00
Search period end: 01 October 2014 00:00
Orbit: 413 x 417 km, 51.6° (Epoch: 21 September)

Date Brightness Start Highest point End Pass type
(mag) Time Alt. Az. Time Alt. Az. Time Alt. Az.
21 Sep - 02:26:26 10° SW 02:29:45 69° SE 02:33:04 10° ENE night (unlit)
21 Sep - 04:03:57 10° WNW 04:06:43 24° NNW 04:09:29 10° NE visible
21 Sep - 05:42:18 10° NW 05:44:18 15° N 05:46:19 10° NE visible
21 Sep - 07:19:02 10° NW 07:21:52 25° NNE 07:24:42 10° E daylight
21 Sep - 08:55:30 10° WNW 08:58:47 58° SW 09:02:03 10° SE daylight
22 Sep - 01:37:49 10° SSW 01:40:56 38° SE 01:44:03 10° ENE night (unlit)
22 Sep - 03:14:39 10° W 03:17:41 31° NNW 03:20:43 10° NE visible
22 Sep - 04:53:05 10° NW 04:55:09 15° N 04:57:13 10° NE visible
22 Sep - 06:30:14 10° NW 06:32:48 20° NNE 06:35:21 10° ENE daylight
22 Sep - 08:06:35 10° NW 08:09:55 80° NE 08:13:14 10° ESE daylight
22 Sep - 09:44:48 10° WSW 09:46:11 12° SW 09:47:33 10° SSW daylight
23 Sep - 00:49:31 10° S 00:52:08 22° SE 00:54:47 10° E night (unlit)
23 Sep - 02:25:26 10° WSW 02:28:39 47° NNW 02:31:54 10° NE night (unlit)
23 Sep - 04:03:43 10° NW 04:05:58 17° N 04:08:14 10° NNE visible
23 Sep - 05:41:22 10° NNW 05:43:38 17° N 05:45:55 10° NE visible
23 Sep - 07:17:42 10° NW 07:20:57 48° NNE 07:24:11 10° ESE daylight
23 Sep - 08:54:52 10° W 08:57:27 21° SW 09:00:01 10° S daylight
24 Sep - 00:01:52 10° SSE 00:03:23 13° SE 00:04:54 10° ESE night (unlit)
24 Sep - 01:36:20 10° WSW 01:39:39 77° NW 01:43:00 10° NE night (unlit)
24 Sep - 03:14:15 10° WNW 03:16:47 20° NNW 03:19:19 10° NE visible
24 Sep - 04:52:21 10° NNW 04:54:26 15° N 04:56:30 10° NE visible
24 Sep - 06:28:50 10° NW 06:31:53 32° NNE 06:34:55 10° E daylight
24 Sep - 08:05:31 10° WNW 08:08:37 36° SW 08:11:42 10° SSE daylight
25 Sep - 00:47:24 10° SW 00:50:41 60° SE 00:53:59 10° ENE night (unlit)
25 Sep - 02:24:47 10° WNW 02:27:36 25° NNW 02:30:26 10° NE night (unlit)
25 Sep - 04:03:09 10° NW 04:05:10 15° N 04:07:10 10° NE visible
25 Sep - 05:39:57 10° NW 05:42:44 24° NNE 05:45:31 10° ENE visible
25 Sep - 07:16:23 10° WNW 07:19:41 66° SW 07:22:59 10° SE daylight
25 Sep - 23:58:42 10° SSW 00:01:44 33° SE 00:04:47 10° ENE night (unlit)
26 Sep - 01:35:21 10° W 01:38:26 34° NNW 01:41:31 10° NE night (unlit)
26 Sep - 03:13:45 10° NW 03:15:52 16° N 03:17:58 10° NNE visible
26 Sep - 04:51:01 10° NW 04:53:30 19° NNE 04:55:59 10° ENE visible
26 Sep - 06:27:20 10° NW 06:30:40 71° NNE 06:33:58 10° ESE daylight
26 Sep - 08:05:12 10° W 08:06:58 14° SW 08:08:44 10° SSW daylight
26 Sep - 23:10:22 10° S 23:12:49 19° SE 23:15:17 10° E night (unlit)
27 Sep - 00:46:01 10° WSW 00:49:16 52° NNW 00:52:33 10° NE night (unlit)
27 Sep - 02:24:13 10° NW 02:26:32 17° NNW 02:28:52 10° NNE night (unlit)
27 Sep - 04:01:58 10° NNW 04:04:12 17° N 04:06:25 10° NE visible
27 Sep - 05:38:19 10° NW 05:41:32 43° NNE 05:44:44 10° ESE visible
27 Sep - 07:15:20 10° W 07:18:04 24° SW 07:20:48 10° S daylight
27 Sep - 22:22:58 10° SE 22:23:56 11° SE 22:24:53 10° ESE night (unlit)
27 Sep - 23:56:49 10° SW 00:00:09 87° NW 00:03:29 10° NE night (unlit)
28 Sep - 01:34:37 10° WNW 01:37:13 21° NNW 01:39:49 10° NE night (unlit)
28 Sep - 03:12:47 10° NW 03:14:50 15° N 03:16:53 10° NE visible
28 Sep - 04:49:19 10° NW 04:52:19 30° NNE 04:55:18 10° E visible
28 Sep - 06:25:55 10° WNW 06:29:05 42° SW 06:32:14 10° SSE daylight
28 Sep - 23:07:48 10° SW 23:11:02 52° SE 23:14:18 10° ENE night (unlit)
29 Sep - 00:45:00 10° W 00:47:54 27° NNW 00:50:47 10° NE night (unlit)
29 Sep - 02:23:24 10° NW 02:25:25 15° N 02:27:27 10° NE night (unlit)
29 Sep - 04:00:18 10° NW 04:03:00 23° NNE 04:05:43 10° ENE visible
29 Sep - 05:36:40 10° WNW 05:40:00 76° SW 05:43:18 10° SE visible
29 Sep - 22:19:02 10° SSW 22:21:58 29° SE 22:24:54 10° ENE night (unlit)
29 Sep - 23:55:28 10° W 23:58:35 37° NNW 00:01:44 10° NE night (unlit)
30 Sep - 01:33:50 10° NW 01:35:59 16° N 01:38:08 10° NNE night (unlit)
30 Sep - 03:11:12 10° NNW 03:13:37 18° NNE 03:16:02 10° ENE visible
30 Sep - 04:47:30 10° NW 04:50:49 63° NNE 04:54:06 10° ESE visible
30 Sep - 06:25:05 10° W 06:27:10 16° SW 06:29:15 10° S daylight
30 Sep - 21:30:42 10° S 21:32:55 17° SE 21:35:09 10° E night (unlit)
30 Sep - 23:06:01 10° WSW 23:09:18 59° NNW 23:12:36 10° NE night (unlit)
